DRAGON CRS-9

Last updated on Sun Aug 21 2016 17:37:44 GMT+0000 (Coordinated Universal Time)

1 41672U 16046A 16233.75555561 .00003708 00000-0 61168-4 0 9995 2 41672 51.6453 95.8301 0002009 148.3825 329.3929 15.55066035 15036
UTC large
Height (km)
Speed (km/s)
/
Latitude / Longitude
Inclination (degrees)
Orbital Period (minutes)
Azimuth
Elevation
Range (km)
Doppler Factor

Next 0 passes for location: London (51.5072 / 0.1276)

Sorry there are no passes over London.